Weather History for Platteville, WI

Change the Weather History Date:

Monday, May 5, 2014

  Actual Average (KDBQ) Record (KDBQ)
Temperature  
Mean Temperature 52 °F 55 °F  
Max Temperature 61 °F 66 °F 92 °F (1949)
Min Temperature 43 °F 45 °F 27 °F (1958)
Degree Days  
Heating Degree Days 13 10  
Month to date heating degree days 53  
Since 1 July heating degree days 6874  
Cooling Degree Days 0 0  
Month to date cooling degree days 0  
Year to date cooling degree days 5  
Growing Degree Days 2 (Base 50)    
Moisture  
Dew Point 32 °F    
Average Humidity 51    
Maximum Humidity 64    
Minimum Humidity 34    
Precipitation  
Precipitation 0.00 in 0.13 in 1.30 in (1913)
Month to date precipitation 0.67  
Year to date precipitation 9.35  
Snow  
Snow 0.00 in 0.00 in - ()
Month to date snowfall 0.1  
Since 1 July snowfall 42.0  
Snow Depth -    
Sea Level Pressure  
Sea Level Pressure 29.97 in    
Wind  
Wind Speed 13 mph (ENE)    
Max Wind Speed 22 mph    
Max Gust Speed 28 mph    
Visibility 10 miles    
Events      
T = Trace of Precipitation, MM = Missing Value Source: NWS Daily Summary

Daily Weather History Graph

Daily Weather History Graph

Search for Another Location

Airport:

Trip Planner

Search our weather history database for the weather conditions in past years. The results will help you decide how hot, cold, wet, or windy it might be!

Date:

Astronomy

May. 05, 2014 Rise Set
Actual Time 5:50 AM CDT 8:06 PM CDT
Civil Twilight 5:19 AM CDT 8:38 PM CDT
Nautical Twilight 4:41 AM CDT 9:16 PM CDT
Astronomical Twilight 3:58 AM CDT 9:59 PM CDT
Moon 11:11 AM CDT (5/5) 12:50 AM CDT (5/5)
Length of Visible Light 15h 18m
Length of Day
14h 15m
Waxing Crescent, 37% of the Moon is Illuminated
May 5
Waxing Crescent
May 6
First Quarter
May 14
Full
May 21
Last Quarter
May 28
New

Hourly Weather History & Observations

Time (CDT) Temp. Windchill Dew Point Humidity Pressure Visibility Wind Dir Wind Speed Gust Speed Precip Events Conditions
12:15 AM 46.9 °F - 32.7 °F 58% 29.98 in 10.0 mi ESE 16.1 mph - N/A   Clear
12:35 AM 46.6 °F - 32.2 °F 57% 30.00 in 10.0 mi East 13.8 mph 17.3 mph N/A   Scattered Clouds
12:55 AM 46.4 °F 41.1 °F 31.6 °F 56% 30.02 in 10.0 mi ESE 11.5 mph 16.1 mph N/A   Scattered Clouds
1:15 AM 45.9 °F 40.8 °F 31.1 °F 56% 30.01 in 10.0 mi ESE 10.4 mph - N/A   Clear
1:35 AM 45.5 °F 39.2 °F 31.1 °F 57% 29.96 in 10.0 mi East 13.8 mph - N/A   Scattered Clouds
1:55 AM 45.5 °F 39.6 °F 30.2 °F 55% 29.97 in 10.0 mi East 12.7 mph - N/A   Clear
2:15 AM 45.1 °F 40.3 °F 30.4 °F 56% 29.97 in 10.0 mi ESE 9.2 mph - N/A   Clear
2:35 AM 45.1 °F 40.8 °F 30.2 °F 56% 29.99 in 10.0 mi East 8.1 mph - N/A   Scattered Clouds
2:55 AM 44.6 °F 40.2 °F 31.1 °F 59% 29.97 in 10.0 mi ENE 8.1 mph - N/A   Clear
3:15 AM 43.3 °F 38.1 °F 31.1 °F 62% 29.97 in 10.0 mi ENE 9.2 mph - N/A   Clear
3:35 AM 43.0 °F 38.2 °F 31.5 °F 64% 29.99 in 10.0 mi ENE 8.1 mph - N/A   Scattered Clouds
3:55 AM 43.3 °F 38.1 °F 31.5 °F 63% 29.98 in 10.0 mi ENE 9.2 mph - N/A   Mostly Cloudy
4:15 AM 43.7 °F 38.6 °F 31.1 °F 61% 29.99 in 10.0 mi ENE 9.2 mph - N/A   Overcast
4:35 AM 44.1 °F 39.5 °F 30.9 °F 60% 29.99 in 10.0 mi ENE 8.1 mph - N/A   Overcast
4:55 AM 43.9 °F 37.5 °F 31.1 °F 61% 29.96 in 10.0 mi East 12.7 mph - N/A   Mostly Cloudy
5:15 AM 43.2 °F 37.4 °F 31.3 °F 63% 29.98 in 10.0 mi ENE 10.4 mph - N/A   Mostly Cloudy
5:35 AM 43.7 °F 38.6 °F 31.5 °F 62% 29.99 in 10.0 mi NE 9.2 mph - N/A   Overcast
5:55 AM 43.7 °F 37.7 °F 31.6 °F 63% 30.00 in 10.0 mi ENE 11.5 mph - N/A   Overcast
6:15 AM 43.9 °F 37.2 °F 32.0 °F 63% 29.98 in 10.0 mi ENE 13.8 mph - N/A   Overcast
6:35 AM 44.1 °F 36.5 °F 32.0 °F 63% 29.96 in 10.0 mi East 17.3 mph - N/A   Scattered Clouds
6:55 AM 44.6 °F 37.8 °F 32.0 °F 61% 29.99 in 10.0 mi ENE 15.0 mph - N/A   Clear
7:15 AM 44.2 °F 37.3 °F 32.2 °F 63% 29.99 in 10.0 mi ENE 15.0 mph 19.6 mph N/A   Scattered Clouds
7:35 AM 45.5 °F 38.6 °F 32.5 °F 61% 29.99 in 10.0 mi ENE 16.1 mph 25.3 mph N/A   Mostly Cloudy
7:55 AM 46.0 °F 38.3 °F 32.4 °F 59% 29.99 in 10.0 mi ENE 20.7 mph - N/A   Overcast
8:15 AM 46.4 °F 39.2 °F 32.9 °F 59% 30.00 in 10.0 mi ENE 18.4 mph 23.0 mph N/A   Mostly Cloudy
8:35 AM 46.8 °F - 33.3 °F 59% 30.01 in 10.0 mi ENE 17.3 mph 23.0 mph N/A   Overcast
8:55 AM 47.8 °F - 33.8 °F 58% 30.01 in 10.0 mi ENE 16.1 mph 19.6 mph N/A   Overcast
9:15 AM 48.2 °F - 34.0 °F 58% 30.01 in 10.0 mi ENE 16.1 mph - N/A   Overcast
9:35 AM 48.7 °F - 33.8 °F 56% 30.00 in 10.0 mi ENE 18.4 mph 23.0 mph N/A   Overcast
9:55 AM 50.0 °F - 34.2 °F 55% 29.99 in 10.0 mi ENE 21.9 mph - N/A   Overcast
10:15 AM 51.3 °F - 34.2 °F 52% 29.99 in 10.0 mi ENE 18.4 mph 26.5 mph N/A   Mostly Cloudy
10:35 AM 51.8 °F - 34.2 °F 51% 30.00 in 10.0 mi ENE 17.3 mph 23.0 mph N/A   Mostly Cloudy
10:55 AM 53.4 °F - 34.5 °F 49% 30.00 in 10.0 mi ENE 20.7 mph 25.3 mph N/A   Mostly Cloudy
11:15 AM 53.8 °F - 34.0 °F 47% 30.00 in 10.0 mi East 21.9 mph 27.6 mph N/A   Mostly Cloudy
11:35 AM 55.0 °F - 34.2 °F 45% 30.00 in 10.0 mi East 17.3 mph 25.3 mph N/A   Scattered Clouds
11:55 AM 54.7 °F - 33.6 °F 45% 29.99 in 10.0 mi East 20.7 mph 26.5 mph N/A   Clear
12:15 PM 55.9 °F - 33.6 °F 43% 29.98 in 10.0 mi ENE 20.7 mph 26.5 mph N/A   Clear
12:35 PM 56.8 °F - 32.9 °F 40% 29.96 in 10.0 mi ENE 19.6 mph 26.5 mph N/A   Clear
12:55 PM 57.6 °F - 33.3 °F 40% 29.96 in 10.0 mi East 16.1 mph 21.9 mph N/A   Clear
1:15 PM 58.1 °F - 32.7 °F 38% 29.96 in 10.0 mi East 15.0 mph 27.6 mph N/A   Clear
1:55 PM 59.2 °F - 32.5 °F 37% 29.95 in 10.0 mi ENE 15.0 mph 21.9 mph N/A   Clear
2:15 PM 59.5 °F - 33.1 °F 37% 29.95 in 10.0 mi East 16.1 mph - N/A   Clear
2:35 PM 60.1 °F - 33.1 °F 36% 29.95 in 10.0 mi ENE 16.1 mph 20.7 mph N/A   Clear
2:55 PM 60.4 °F - 32.7 °F 35% 29.95 in 10.0 mi ENE 16.1 mph 23.0 mph N/A   Clear
3:15 PM 60.8 °F - 32.2 °F 34% 29.94 in 10.0 mi ENE 15.0 mph 21.9 mph N/A   Clear
3:35 PM 60.8 °F - 32.5 °F 35% 29.94 in 10.0 mi ENE 15.0 mph 20.7 mph N/A   Clear
3:55 PM 61.2 °F - 32.4 °F 34% 29.93 in 10.0 mi East 15.0 mph 20.7 mph N/A   Clear
4:15 PM 61.7 °F - 34.0 °F 35% 29.93 in 10.0 mi East 13.8 mph - N/A   Clear
4:35 PM 60.3 °F - 32.4 °F 35% 29.93 in 10.0 mi East 15.0 mph - N/A   Clear
4:55 PM 59.7 °F - 31.5 °F 34% 29.93 in 10.0 mi East 16.1 mph 19.6 mph N/A   Clear
5:15 PM 59.0 °F - 31.5 °F 35% 29.93 in 10.0 mi East 12.7 mph - N/A   Clear
5:35 PM 59.0 °F - 32.2 °F 36% 29.94 in 10.0 mi East 12.7 mph - N/A   Clear
5:55 PM 59.5 °F - 33.1 °F 37% 29.95 in 10.0 mi East 11.5 mph 17.3 mph N/A   Clear
6:15 PM 59.2 °F - 32.2 °F 36% 29.95 in 10.0 mi East 11.5 mph - N/A   Clear
6:35 PM 59.2 °F - 31.8 °F 36% 29.95 in 10.0 mi East 11.5 mph - N/A   Clear
6:55 PM 58.5 °F - 32.5 °F 38% 29.95 in 10.0 mi ENE 11.5 mph - N/A   Clear
7:15 PM 57.6 °F - 32.9 °F 39% 29.96 in 10.0 mi East 11.5 mph - N/A   Clear
7:35 PM 56.1 °F - 33.3 °F 42% 29.95 in 10.0 mi East 10.4 mph - N/A   Clear
7:55 PM 53.8 °F - 34.5 °F 48% 29.97 in 10.0 mi ENE 9.2 mph - N/A   Clear
8:15 PM 52.0 °F - 34.0 °F 50% 29.97 in 10.0 mi ENE 10.4 mph - N/A   Clear
8:35 PM 50.7 °F - 33.1 °F 51% 29.96 in 10.0 mi ENE 9.2 mph - N/A   Clear
8:55 PM 49.1 °F - 33.8 °F 56% 29.97 in 10.0 mi ENE 9.2 mph - N/A   Clear
9:15 PM 48.6 °F - 33.6 °F 56% 29.97 in 10.0 mi ENE 9.2 mph - N/A   Clear
9:35 PM 47.5 °F - 33.1 °F 57% 29.97 in 10.0 mi ENE 9.2 mph - N/A   Clear
9:55 PM 46.9 °F - 32.5 °F 57% 29.98 in 10.0 mi ENE 8.1 mph - N/A   Clear
10:15 PM 46.4 °F 42.4 °F 32.2 °F 58% 29.99 in 10.0 mi East 8.1 mph - N/A   Clear
10:35 PM 45.3 °F 40.6 °F 32.0 °F 60% 29.98 in 10.0 mi ENE 9.2 mph - N/A   Clear
10:55 PM 45.5 °F 41.3 °F 32.0 °F 59% 29.99 in 10.0 mi ENE 8.1 mph - N/A   Clear
11:15 PM 44.8 °F 40.4 °F 31.8 °F 60% 29.99 in 10.0 mi ENE 8.1 mph - N/A   Clear
11:35 PM 44.6 °F 40.2 °F 32.0 °F 61% 29.99 in 10.0 mi ENE 8.1 mph - N/A   Clear
11:55 PM 44.2 °F 38.8 °F 32.0 °F 62% 29.99 in 10.0 mi ENE 10.4 mph - N/A   Clear